Weather History for KBBG - May, 2014

Change the Weather History Date:

Wednesday, May 21, 2014

  Actual Average (KHRO) Record (KHRO)
Temperature  
Mean Temperature 76 °F 67 °F  
Max Temperature 87 °F 77 °F 96 °F (1904)
Min Temperature 64 °F 57 °F 38 °F (1954)
Degree Days  
Heating Degree Days 0 2  
Month to date heating degree days 64  
Since 1 July heating degree days 3985  
Cooling Degree Days 10 4  
Month to date cooling degree days 57  
Year to date cooling degree days 94  
Growing Degree Days 26 (Base 50)    
Moisture  
Dew Point 63 °F    
Average Humidity 77    
Maximum Humidity 94    
Minimum Humidity 48    
Precipitation  
Precipitation 0.00 in 0.13 in 3.43 in (1920)
Month to date precipitation 3.32  
Year to date precipitation 16.63  
Snow  
Snow 0.00 in 0.00 in - ()
Month to date snowfall 0.0  
Since 1 July snowfall 11.5  
Snow Depth -    
Sea Level Pressure  
Sea Level Pressure 30.02 in    
Wind  
Wind Speed 6 mph (SSW)    
Max Wind Speed 14 mph    
Max Gust Speed -    
Visibility 10 miles    
Events      
T = Trace of Precipitation, MM = Missing Value Source: NWS Daily Summary

Daily Weather History Graph

Daily Weather History Graph

Search for Another Location

Airport or City:

Trip Planner

Search our weather history database for the weather conditions in past years. The results will help you decide how hot, cold, wet, or windy it might be!

Date:

Astronomy

May. 21, 2014 Rise Set
Actual Time 6:01 AM CDT 8:17 PM CDT
Civil Twilight 5:32 AM CDT 8:47 PM CDT
Nautical Twilight 4:56 AM CDT 9:23 PM CDT
Astronomical Twilight 4:17 AM CDT 10:02 PM CDT
Moon 1:31 AM CDT (5/21) 1:11 PM CDT (5/21)
Length of Visible Light 15h 14m
Length of Day
14h 16m
Waning Gibbous, 48% of the Moon is Illuminated
May 21
Waning Gibbous
May 28
New
Jun 5
First Quarter
Jun 12
Full
Jun 19
Last Quarter

Hourly Weather History & Observations

Time (CDT) Temp. Heat Index Dew Point Humidity Pressure Visibility Wind Dir Wind Speed Gust Speed Precip Events Conditions
12:15 AM 68.0 °F - 62.6 °F 83% 29.98 in 10.0 mi South 8.1 mph - N/A   Clear
12:35 AM 68.0 °F - 62.6 °F 83% 29.97 in 10.0 mi South 9.2 mph - N/A   Clear
12:55 AM 69.8 °F - 62.6 °F 78% 29.97 in 10.0 mi SSW 9.2 mph - N/A   Clear
1:15 AM 69.8 °F - 62.6 °F 78% 29.97 in 10.0 mi SSW 6.9 mph - N/A   Clear
1:35 AM 69.8 °F - 62.6 °F 78% 29.97 in 10.0 mi SSW 5.8 mph - N/A   Clear
1:55 AM 68.0 °F - 62.6 °F 83% 29.97 in 10.0 mi SSW 5.8 mph - N/A   Clear
2:15 AM 68.0 °F - 62.6 °F 83% 29.97 in 10.0 mi SW 3.5 mph - N/A   Clear
2:35 AM 68.0 °F - 62.6 °F 83% 29.98 in 10.0 mi SW 3.5 mph - N/A   Clear
2:55 AM 66.2 °F - 60.8 °F 83% 29.98 in 10.0 mi Calm Calm - N/A   Clear
3:15 AM 66.2 °F - 62.6 °F 88% 29.98 in 10.0 mi SW 4.6 mph - N/A   Clear
3:35 AM 66.2 °F - 62.6 °F 88% 29.98 in 10.0 mi SSW 4.6 mph - N/A   Clear
3:55 AM 68.0 °F - 62.6 °F 83% 29.97 in 10.0 mi SSW 5.8 mph - N/A   Clear
4:15 AM 68.0 °F - 62.6 °F 83% 29.98 in 10.0 mi SSW 5.8 mph - N/A   Clear
4:35 AM 66.2 °F - 62.6 °F 88% 29.98 in 10.0 mi SSW 4.6 mph - N/A   Clear
4:55 AM 66.2 °F - 62.6 °F 88% 29.98 in 10.0 mi SSW 5.8 mph - N/A   Clear
5:15 AM 66.2 °F - 62.6 °F 88% 29.98 in 10.0 mi SSW 4.6 mph - N/A   Clear
5:35 AM 66.2 °F - 62.6 °F 88% 29.99 in 10.0 mi SSW 4.6 mph - N/A   Clear
5:55 AM 66.2 °F - 62.6 °F 88% 30.00 in 10.0 mi SSW 3.5 mph - N/A   Clear
6:15 AM 66.2 °F - 62.6 °F 88% 30.00 in 10.0 mi SSW 3.5 mph - N/A   Clear
6:35 AM 66.2 °F - 62.6 °F 88% 30.01 in 10.0 mi SSW 4.6 mph - N/A   Clear
6:45 AM 66.2 °F - 62.6 °F 88% 30.01 in 10.0 mi SSW 6.9 mph - N/A   Scattered Clouds
7:45 AM 68.0 °F - 62.6 °F 83% 30.03 in 10.0 mi SSW 9.2 mph - N/A   Mostly Cloudy
8:45 AM 71.6 °F - 64.4 °F 78% 30.04 in 10.0 mi SSW 9.2 mph - N/A   Partly Cloudy
10:45 AM 80.6 °F 82.3 °F 64.4 °F 58% 30.05 in 10.0 mi SSW 11.5 mph - N/A   Mostly Cloudy
11:52 AM 82.4 °F 83.4 °F 62.6 °F 51% 30.06 in 10.0 mi SSW 9.2 mph - N/A   Mostly Cloudy
1:45 PM 84.2 °F 85.6 °F 64.4 °F 51% 30.04 in 10.0 mi SSW 13.8 mph - N/A   Mostly Cloudy
2:55 PM 86.0 °F 87.3 °F 64.4 °F 48% 30.04 in 10.0 mi SW 9.2 mph - N/A   Mostly Cloudy
3:45 PM 86.0 °F 87.3 °F 64.4 °F 48% 30.04 in 10.0 mi SW 9.2 mph - N/A   Scattered Clouds
4:45 PM 87.8 °F 90.4 °F 66.2 °F 49% 30.04 in 10.0 mi SSW 6.9 mph - N/A   Scattered Clouds
5:50 PM 84.2 °F 85.6 °F 64.4 °F 51% 30.03 in 10.0 mi SW 6.9 mph - N/A   Partly Cloudy
6:45 PM 82.4 °F 83.9 °F 64.4 °F 54% 30.01 in 10.0 mi SSW 8.1 mph - N/A   Partly Cloudy
7:45 PM 77.0 °F - 62.6 °F 61% 30.02 in 10.0 mi SW 6.9 mph - N/A   Scattered Clouds
8:45 PM 71.6 °F - 62.6 °F 73% 30.04 in 10.0 mi West 4.6 mph - N/A   Scattered Clouds
9:15 PM 71.6 °F - 62.6 °F 73% 30.05 in 10.0 mi Calm Calm - N/A   Clear
9:35 PM 69.8 °F - 62.6 °F 78% 30.05 in 10.0 mi Calm Calm - N/A   Partly Cloudy
9:55 PM 68.0 °F - 62.6 °F 83% 30.06 in 10.0 mi Calm Calm - N/A   Scattered Clouds
10:15 PM 68.0 °F - 62.6 °F 83% 30.07 in 10.0 mi Calm Calm - N/A   Partly Cloudy
10:35 PM 66.2 °F - 62.6 °F 88% 30.07 in 10.0 mi Calm Calm - N/A   Partly Cloudy
11:15 PM 64.4 °F - 62.6 °F 94% 30.08 in 10.0 mi Calm Calm - N/A   Mostly Cloudy
11:35 PM 66.2 °F - 62.6 °F 88% 30.09 in 10.0 mi SW 3.5 mph - N/A   Mostly Cloudy
11:55 PM 66.2 °F - 62.6 °F 88% 30.09 in 10.0 mi SW 3.5 mph - N/A   Mostly Cloudy